TimeCDT,TemperatureF,Dew PointF,Humidity,Sea Level PressureIn,VisibilityMPH,Wind Direction,Wind SpeedMPH,Gust SpeedMPH,PrecipitationIn,Events,Conditions,WindDirDegrees,DateUTC
12:52 AM,55.9,50.0,80,29.93,10.0,ENE,9.2,-,N/A,,Scattered Clouds,70,2013-09-25 05:52:00
1:52 AM,55.0,50.0,83,29.94,9.0,ENE,9.2,-,N/A,,Clear,70,2013-09-25 06:52:00
2:52 AM,53.1,50.0,89,29.92,8.0,ENE,6.9,-,N/A,,Clear,60,2013-09-25 07:52:00
3:52 AM,53.1,50.0,89,29.92,7.0,ENE,6.9,-,N/A,,Clear,60,2013-09-25 08:52:00
4:52 AM,53.1,50.0,89,29.91,7.0,ENE,9.2,-,N/A,,Clear,60,2013-09-25 09:52:00
5:52 AM,52.0,48.9,89,29.92,6.0,ENE,6.9,-,N/A,,Clear,60,2013-09-25 10:52:00
6:52 AM,52.0,48.9,89,29.94,5.0,ENE,6.9,-,N/A,,Clear,60,2013-09-25 11:52:00
7:52 AM,53.1,50.0,89,29.96,4.0,ENE,9.2,-,N/A,,Clear,60,2013-09-25 12:52:00
8:52 AM,57.9,52.0,81,29.97,6.0,ENE,10.4,-,N/A,,Haze,70,2013-09-25 13:52:00
9:52 AM,63.0,51.1,65,29.98,9.0,ENE,9.2,-,N/A,,Clear,70,2013-09-25 14:52:00
10:52 AM,68.0,50.0,52,29.97,10.0,East,5.8,-,N/A,,Clear,80,2013-09-25 15:52:00
11:52 AM,71.1,50.0,47,29.96,10.0,East,8.1,-,N/A,,Clear,80,2013-09-25 16:52:00
12:52 PM,73.9,50.0,43,29.96,10.0,ENE,6.9,-,N/A,,Clear,70,2013-09-25 17:52:00
1:52 PM,75.0,50.0,41,29.93,10.0,Variable,4.6,-,N/A,,Clear,0,2013-09-25 18:52:00
2:52 PM,77.0,51.1,40,29.91,10.0,Variable,4.6,-,N/A,,Clear,0,2013-09-25 19:52:00
3:52 PM,77.0,51.1,40,29.90,10.0,Variable,4.6,-,N/A,,Clear,0,2013-09-25 20:52:00
4:52 PM,75.9,50.0,40,29.90,10.0,SE,3.5,-,N/A,,Clear,140,2013-09-25 21:52:00
5:52 PM,73.9,50.0,43,29.91,10.0,East,5.8,-,N/A,,Clear,100,2013-09-25 22:52:00
6:52 PM,66.0,51.1,59,29.91,10.0,ENE,5.8,-,N/A,,Clear,60,2013-09-25 23:52:00
7:52 PM,59.0,51.1,75,29.92,10.0,ENE,4.6,-,N/A,,Clear,70,2013-09-26 00:52:00
8:52 PM,61.0,51.1,70,29.92,10.0,East,8.1,-,N/A,,Clear,80,2013-09-26 01:52:00
9:52 PM,61.0,48.9,64,29.94,10.0,East,10.4,-,N/A,,Clear,90,2013-09-26 02:52:00
10:52 PM,59.0,50.0,72,29.94,10.0,East,11.5,-,N/A,,Clear,100,2013-09-26 03:52:00
11:52 PM,57.0,50.0,77,29.96,10.0,ESE,9.2,-,N/A,,Clear,110,2013-09-26 04:52:00